TimeEDT,TemperatureF,Dew PointF,Humidity,Sea Level PressureIn,VisibilityMPH,Wind Direction,Wind SpeedMPH,Gust SpeedMPH,PrecipitationIn,Events,Conditions,WindDirDegrees,DateUTC
12:55 AM,70.7,69.3,95,30.12,10.0,Calm,Calm,-,N/A,,Mostly Cloudy,0,2012-10-04 04:55:00
1:55 AM,70.7,68.9,94,30.12,10.0,Calm,Calm,-,N/A,,Scattered Clouds,0,2012-10-04 05:55:00
2:55 AM,71.2,69.4,94,30.11,10.0,Calm,Calm,-,N/A,,Mostly Cloudy,0,2012-10-04 06:55:00
3:55 AM,71.4,70.2,96,30.10,10.0,Calm,Calm,-,N/A,,Mostly Cloudy,0,2012-10-04 07:55:00
4:55 AM,71.1,70.7,99,30.11,10.0,Calm,Calm,-,N/A,,Mostly Cloudy,0,2012-10-04 08:55:00
5:28 AM,71.6,71.6,100,30.11,9.0,Calm,Calm,-,N/A,,Mostly Cloudy,0,2012-10-04 09:28:00
5:53 AM,71.6,71.6,100,30.11,9.0,Calm,Calm,-,N/A,,Mostly Cloudy,0,2012-10-04 09:53:00
5:55 AM,72.0,71.6,99,30.11,9.0,Calm,Calm,-,N/A,,Mostly Cloudy,0,2012-10-04 09:55:00
6:04 AM,71.6,71.6,100,30.11,9.0,Calm,Calm,-,N/A,,Mostly Cloudy,0,2012-10-04 10:04:00
6:50 AM,71.6,69.8,94,30.11,5.0,Calm,Calm,-,N/A,,Mostly Cloudy,0,2012-10-04 10:50:00
6:55 AM,71.1,70.7,99,30.11,5.0,Calm,Calm,-,N/A,,Mostly Cloudy,0,2012-10-04 10:55:00
7:55 AM,72.3,72.1,99,30.12,5.0,Calm,Calm,-,N/A,,Partly Cloudy,0,2012-10-04 11:55:00
8:47 AM,73.4,73.4,100,30.13,6.0,SSW,3.5,-,N/A,,Partly Cloudy,210,2012-10-04 12:47:00
8:55 AM,74.1,73.8,99,30.13,6.0,SSW,3.5,-,N/A,,Scattered Clouds,210,2012-10-04 12:55:00
8:56 AM,73.4,73.4,100,30.13,6.0,SSW,3.5,-,N/A,,Mostly Cloudy,210,2012-10-04 12:56:00
9:08 AM,75.2,75.2,100,30.13,7.0,WSW,3.5,-,N/A,Rain,Light Rain,250,2012-10-04 13:08:00
9:24 AM,75.2,75.2,100,30.14,7.0,WSW,5.8,-,N/A,,Overcast,240,2012-10-04 13:24:00
9:36 AM,75.2,75.2,100,30.14,7.0,Calm,Calm,-,N/A,Rain,Light Rain,0,2012-10-04 13:36:00
9:38 AM,75.2,75.2,100,30.14,7.0,Calm,Calm,-,N/A,Rain,Light Rain,0,2012-10-04 13:38:00
9:55 AM,75.0,74.8,99,30.12,6.0,SE,4.6,-,0.00,,Light Drizzle,140,2012-10-04 13:55:00
9:57 AM,75.2,75.2,100,30.12,7.0,SE,3.5,-,N/A,,Scattered Clouds,140,2012-10-04 13:57:00
10:02 AM,75.2,75.2,100,30.12,7.0,ESE,3.5,-,N/A,Rain,Light Rain,120,2012-10-04 14:02:00
10:15 AM,75.2,75.2,100,30.12,7.0,Calm,Calm,-,N/A,,Light Drizzle,0,2012-10-04 14:15:00
10:24 AM,75.2,75.2,100,30.12,6.0,Calm,Calm,-,N/A,Rain,Light Rain,0,2012-10-04 14:24:00
10:27 AM,75.2,75.2,100,30.12,5.0,Calm,Calm,-,N/A,Rain,Light Rain,0,2012-10-04 14:27:00
10:30 AM,75.2,75.2,100,30.12,6.0,Calm,Calm,-,N/A,Rain,Light Rain,0,2012-10-04 14:30:00
10:37 AM,75.2,75.2,100,30.12,7.0,Calm,Calm,-,N/A,,Mostly Cloudy,0,2012-10-04 14:37:00
10:45 AM,75.2,75.2,100,30.12,7.0,SW,3.5,-,N/A,,Mostly Cloudy,230,2012-10-04 14:45:00
10:55 AM,76.5,76.1,99,30.12,7.0,SSW,3.5,-,0.01,,Scattered Clouds,200,2012-10-04 14:55:00
11:14 AM,77.0,77.0,100,30.12,8.0,West,6.9,-,N/A,,Mostly Cloudy,260,2012-10-04 15:14:00
11:16 AM,77.0,77.0,100,30.12,8.0,West,9.2,-,N/A,,Mostly Cloudy,260,2012-10-04 15:16:00
11:18 AM,77.0,77.0,100,30.12,8.0,West,9.2,-,N/A,,Mostly Cloudy,260,2012-10-04 15:18:00
11:22 AM,77.0,75.2,94,30.12,8.0,West,5.8,-,N/A,,Mostly Cloudy,260,2012-10-04 15:22:00
11:23 AM,77.0,75.2,94,30.12,8.0,WSW,3.5,-,N/A,,Mostly Cloudy,250,2012-10-04 15:23:00
11:29 AM,77.0,75.2,94,30.11,8.0,Calm,Calm,-,N/A,,Mostly Cloudy,0,2012-10-04 15:29:00
11:30 AM,77.0,75.2,94,30.11,9.0,Calm,Calm,-,N/A,,Mostly Cloudy,0,2012-10-04 15:30:00
11:32 AM,77.0,75.2,94,30.10,9.0,ESE,3.5,-,N/A,,Mostly Cloudy,110,2012-10-04 15:32:00
11:34 AM,77.0,75.2,94,30.10,9.0,Calm,Calm,-,N/A,,Mostly Cloudy,0,2012-10-04 15:34:00
11:42 AM,78.8,73.4,83,30.11,10.0,SSW,4.6,-,N/A,,Scattered Clouds,210,2012-10-04 15:42:00
11:50 AM,78.8,73.4,83,30.11,10.0,SW,5.8,-,N/A,,Partly Cloudy,220,2012-10-04 15:50:00
11:55 AM,78.1,73.8,86,30.11,10.0,SW,6.9,-,N/A,,Partly Cloudy,220,2012-10-04 15:55:00
12:55 PM,79.7,72.1,78,30.08,10.0,Calm,Calm,-,N/A,,Mostly Cloudy,0,2012-10-04 16:55:00
1:55 PM,80.2,70.5,72,30.07,10.0,SW,4.6,-,N/A,,Partly Cloudy,220,2012-10-04 17:55:00
2:55 PM,79.0,68.2,69,30.07,10.0,WSW,10.4,-,N/A,,Mostly Cloudy,250,2012-10-04 18:55:00
3:55 PM,78.1,64.9,64,30.06,10.0,SW,6.9,-,N/A,,Partly Cloudy,230,2012-10-04 19:55:00
4:55 PM,77.5,62.4,59,30.06,10.0,Variable,3.5,-,N/A,,Clear,0,2012-10-04 20:55:00
5:55 PM,76.8,65.3,67,30.06,10.0,Variable,4.6,-,N/A,,Clear,0,2012-10-04 21:55:00
6:55 PM,73.0,65.7,78,30.06,10.0,SW,4.6,-,N/A,,Clear,230,2012-10-04 22:55:00
7:55 PM,73.2,66.2,79,30.07,10.0,NW,9.2,-,N/A,,Mostly Cloudy,320,2012-10-04 23:55:00
8:55 PM,70.0,64.4,82,30.08,10.0,NW,8.1,-,N/A,,Clear,310,2012-10-05 00:55:00
9:55 PM,70.0,64.4,82,30.09,10.0,West,5.8,-,N/A,,Clear,280,2012-10-05 01:55:00
10:55 PM,67.3,64.2,90,30.09,10.0,West,5.8,-,N/A,,Clear,270,2012-10-05 02:55:00
11:55 PM,66.6,63.1,89,30.09,10.0,West,3.5,-,N/A,,Clear,280,2012-10-05 03:55:00